PHDTS EHLE-EDLW

Flight info

Callsign PHDTS
Flight time 1h 4m
Altitude 3000
Route EHLE BRAVO DCT SIERRA EHTE DCT ZUTPHEN DCT WINTERSWIJK DCT WHISKEY EDLW
Aircraft DA42/L-SDBGRY/S

Departure

Time 2026-04-30 18:11
Airport Lelystad Airport (EHLE)

Arrival

Time 2026-04-30 19:16
Airport Dortmund Airport (EDLW)
Time Latitude Longitude Altitude Speed Heading
2026-04-30 17:48 52.45575 5.52389 -10 ft 0 kts 137°
2026-04-30 18:05 52.45550 5.52260 -10 ft 11 kts 228°
2026-04-30 18:06 52.45255 5.51731 -10 ft 15 kts 227°
2026-04-30 18:07 52.45028 5.51249 -10 ft 9 kts 284°
2026-04-30 18:08 52.45042 5.51210 -10 ft 0 kts 19°
2026-04-30 18:11 52.45341 5.51502 0 ft 68 kts 51°
2026-04-30 18:11 52.46531 5.53513 826 ft 80 kts 58°
2026-04-30 18:12 52.46327 5.55748 1037 ft 119 kts 172°
2026-04-30 18:13 52.44992 5.53549 1015 ft 151 kts 219°
2026-04-30 18:13 52.43152 5.53152 974 ft 116 kts 130°
2026-04-30 18:14 52.41941 5.55510 1018 ft 118 kts 126°
2026-04-30 18:15 52.40404 5.58749 1021 ft 114 kts 122°
2026-04-30 18:15 52.38851 5.61811 1011 ft 118 kts 124°
2026-04-30 18:16 52.37850 5.63807 1245 ft 98 kts 125°
2026-04-30 18:16 52.37071 5.65306 1916 ft 85 kts 126°
2026-04-30 18:17 52.36664 5.66090 2013 ft 100 kts 127°
2026-04-30 18:17 52.36199 5.67008 2043 ft 108 kts 127°
2026-04-30 18:17 52.35146 5.69003 2028 ft 121 kts 128°
2026-04-30 18:18 52.34599 5.70064 2017 ft 124 kts 127°
2026-04-30 18:18 52.34036 5.71148 2010 ft 126 kts 128°
2026-04-30 18:18 52.33472 5.72249 1985 ft 127 kts 126°
2026-04-30 18:18 52.32894 5.73339 1990 ft 127 kts 129°
2026-04-30 18:19 52.32297 5.74413 1966 ft 128 kts 129°
2026-04-30 18:19 52.31704 5.75497 1993 ft 127 kts 128°
2026-04-30 18:19 52.31138 5.76586 2020 ft 126 kts 125°
2026-04-30 18:19 52.30588 5.77704 2017 ft 127 kts 127°
2026-04-30 18:20 52.30021 5.78796 2043 ft 126 kts 128°
2026-04-30 18:20 52.29433 5.79856 2038 ft 127 kts 129°
2026-04-30 18:20 52.28840 5.80929 2032 ft 126 kts 126°
2026-04-30 18:20 52.28276 5.82029 2015 ft 127 kts 126°
2026-04-30 18:21 52.27698 5.83133 1970 ft 128 kts 126°
2026-04-30 18:21 52.27112 5.84239 1923 ft 129 kts 127°
2026-04-30 18:21 52.26522 5.85326 1879 ft 127 kts 126°
2026-04-30 18:21 52.25943 5.86405 1880 ft 124 kts 126°
2026-04-30 18:22 52.25379 5.87442 1899 ft 121 kts 128°
2026-04-30 18:22 52.24235 5.89500 1859 ft 124 kts 126°
2026-04-30 18:22 52.23705 5.90597 1856 ft 122 kts 122°
2026-04-30 18:23 52.23244 5.91751 1875 ft 120 kts 120°
2026-04-30 18:23 52.22804 5.92894 1893 ft 119 kts 119°
2026-04-30 18:23 52.22381 5.94057 1928 ft 120 kts 117°
2026-04-30 18:23 52.22007 5.95255 1965 ft 120 kts 116°
2026-04-30 18:24 52.21306 5.97762 2015 ft 121 kts 112°
2026-04-30 18:24 52.20881 5.98936 2004 ft 124 kts 125°
2026-04-30 18:24 52.20296 5.99957 2028 ft 121 kts 136°
2026-04-30 18:25 52.19631 6.00806 1795 ft 125 kts 137°
2026-04-30 18:25 52.18254 6.02575 1251 ft 127 kts 137°
2026-04-30 18:25 52.17668 6.03599 1021 ft 122 kts 104°
2026-04-30 18:26 52.19050 6.05155 709 ft 138 kts 22°
2026-04-30 18:26 52.19955 6.05420 718 ft 131 kts
2026-04-30 18:26 52.20866 6.05194 673 ft 134 kts 360°
2026-04-30 18:27 52.22271 6.03900 680 ft 121 kts 275°
2026-04-30 18:27 52.22388 6.02587 671 ft 111 kts 290°
2026-04-30 18:28 52.23500 6.01885 489 ft 86 kts 10°
2026-04-30 18:28 52.24077 6.01963 358 ft 76 kts 41°
2026-04-30 18:28 52.24217 6.03544 138 ft 71 kts 87°
2026-04-30 18:29 52.24253 6.04348 16 ft 62 kts 87°
2026-04-30 18:29 52.24345 6.06558 624 ft 74 kts 90°
2026-04-30 18:30 52.23728 6.07864 697 ft 111 kts 154°
2026-04-30 18:30 52.22368 6.06645 727 ft 143 kts 269°
2026-04-30 18:31 52.22398 6.05010 567 ft 142 kts 272°
2026-04-30 18:31 52.22616 6.02213 702 ft 110 kts 330°
2026-04-30 18:32 52.23947 6.01905 379 ft 95 kts 20°
2026-04-30 18:32 52.24202 6.02704 286 ft 77 kts 94°
2026-04-30 18:32 52.24251 6.04289 18 ft 57 kts 83°
2026-04-30 18:33 52.24275 6.04793 11 ft 31 kts 87°
2026-04-30 18:33 52.24282 6.05183 14 ft 10 kts 137°
2026-04-30 18:33 52.24228 6.05181 14 ft 11 kts 197°
2026-04-30 18:34 52.24193 6.05064 14 ft 20 kts 265°
2026-04-30 18:34 52.24173 6.04628 14 ft 16 kts 263°
2026-04-30 18:34 52.24163 6.04440 14 ft 18 kts 266°
2026-04-30 18:35 52.24157 6.04297 14 ft 8 kts 269°
2026-04-30 18:35 52.24182 6.04234 14 ft 6 kts 326°
2026-04-30 18:35 52.24203 6.04209 14 ft 0 kts 322°
2026-04-30 18:36 52.24222 6.04187 15 ft 8 kts 330°
2026-04-30 18:36 52.24247 6.04205 16 ft 0 kts 88°
2026-04-30 18:36 52.24272 6.04757 36 ft 66 kts 86°
2026-04-30 18:37 52.24314 6.05542 266 ft 67 kts 88°
2026-04-30 18:37 52.24344 6.06325 475 ft 74 kts 79°
2026-04-30 18:37 52.24663 6.07072 758 ft 85 kts 58°
2026-04-30 18:37 52.25032 6.07848 1053 ft 85 kts 63°
2026-04-30 18:38 52.25406 6.08604 1334 ft 86 kts 63°
2026-04-30 18:38 52.25664 6.09089 1561 ft 82 kts 63°
2026-04-30 18:38 52.26011 6.09806 1827 ft 84 kts 65°
2026-04-30 18:38 52.26382 6.10549 2134 ft 83 kts 68°
2026-04-30 18:39 52.26723 6.11268 2473 ft 79 kts 65°
2026-04-30 18:39 52.26892 6.12077 2637 ft 77 kts 104°
2026-04-30 18:39 52.26600 6.12756 2935 ft 73 kts 130°
2026-04-30 18:39 52.26221 6.13412 3017 ft 87 kts 128°
2026-04-30 18:40 52.25787 6.14218 3016 ft 101 kts 128°
2026-04-30 18:40 52.25318 6.15138 3012 ft 110 kts 131°
2026-04-30 18:40 52.24671 6.15877 3013 ft 117 kts 144°
2026-04-30 18:40 52.23899 6.16401 3014 ft 122 kts 152°
2026-04-30 18:41 52.23090 6.16884 3011 ft 124 kts 153°
2026-04-30 18:41 52.22276 6.17368 3012 ft 125 kts 153°
2026-04-30 18:41 52.21456 6.17858 3008 ft 126 kts 153°
2026-04-30 18:41 52.20628 6.18355 3009 ft 127 kts 153°
2026-04-30 18:42 52.19794 6.18864 3007 ft 129 kts 153°
2026-04-30 18:42 52.18114 6.19920 3008 ft 130 kts 153°
2026-04-30 18:42 52.17269 6.20450 3008 ft 130 kts 153°
2026-04-30 18:45 52.11050 6.29471 3005 ft 125 kts 119°
2026-04-30 18:45 52.10648 6.30725 3006 ft 125 kts 119°
2026-04-30 18:45 52.10245 6.31972 3007 ft 124 kts 118°
2026-04-30 18:46 52.09842 6.33212 3003 ft 124 kts 119°
2026-04-30 18:46 52.09441 6.34447 3003 ft 123 kts 119°
2026-04-30 18:46 52.09039 6.35681 3004 ft 123 kts 119°
2026-04-30 18:46 52.08636 6.36908 3004 ft 123 kts 118°
2026-04-30 18:47 52.08225 6.38136 3010 ft 124 kts 119°
2026-04-30 18:47 52.07809 6.39367 3001 ft 124 kts 119°
2026-04-30 18:47 52.07397 6.40588 3002 ft 123 kts 119°
2026-04-30 18:47 52.06991 6.41814 3002 ft 123 kts 119°
2026-04-30 18:48 52.06589 6.43041 3002 ft 122 kts 119°
2026-04-30 18:48 52.06191 6.44259 3002 ft 122 kts 119°
2026-04-30 18:48 52.05795 6.45472 3002 ft 121 kts 119°
2026-04-30 18:48 52.05399 6.46683 3002 ft 121 kts 119°
2026-04-30 18:49 52.05003 6.47892 3001 ft 121 kts 119°
2026-04-30 18:49 52.04608 6.49104 3007 ft 122 kts 119°
2026-04-30 18:49 52.04213 6.50319 3007 ft 122 kts 119°
2026-04-30 18:49 52.03817 6.51537 3008 ft 122 kts 119°
2026-04-30 18:50 52.03420 6.52758 3009 ft 123 kts 119°
2026-04-30 18:50 52.03020 6.53989 3010 ft 124 kts 119°
2026-04-30 18:50 52.02615 6.55225 3010 ft 124 kts 119°
2026-04-30 18:50 52.02207 6.56463 3009 ft 125 kts 119°
2026-04-30 18:51 52.01800 6.57688 3009 ft 125 kts 119°
2026-04-30 18:51 52.01380 6.58945 3009 ft 125 kts 119°
2026-04-30 18:51 52.00966 6.60188 3010 ft 125 kts 119°
2026-04-30 18:51 52.00551 6.61438 3010 ft 126 kts 119°
2026-04-30 18:52 52.00138 6.62687 3002 ft 126 kts 119°
2026-04-30 18:52 51.99722 6.63938 3003 ft 126 kts 119°
2026-04-30 18:52 51.99307 6.65172 3003 ft 126 kts 119°
2026-04-30 18:52 51.98881 6.66432 3013 ft 125 kts 119°
2026-04-30 18:53 51.98466 6.67651 3012 ft 125 kts 119°
2026-04-30 18:53 51.98049 6.68880 3011 ft 124 kts 119°
2026-04-30 18:53 51.97634 6.70106 3011 ft 124 kts 119°
2026-04-30 18:53 51.97219 6.71331 3011 ft 124 kts 122°
2026-04-30 18:54 51.96691 6.72434 3013 ft 124 kts 129°
2026-04-30 18:54 51.96137 6.73503 3013 ft 124 kts 129°
2026-04-30 18:54 51.95582 6.74570 3013 ft 124 kts 129°
2026-04-30 18:54 51.95022 6.75638 3013 ft 124 kts 129°
2026-04-30 18:55 51.94463 6.76706 3013 ft 124 kts 129°
2026-04-30 18:55 51.93350 6.78851 3013 ft 124 kts 129°
2026-04-30 18:55 51.92796 6.79927 3013 ft 125 kts 129°
2026-04-30 18:56 51.91689 6.82103 3013 ft 126 kts 129°
2026-04-30 18:56 51.91136 6.83200 3013 ft 126 kts 129°
2026-04-30 18:56 51.90583 6.84298 3010 ft 126 kts 129°
2026-04-30 18:57 51.89467 6.86482 3010 ft 126 kts 129°
2026-04-30 18:57 51.88907 6.87573 3008 ft 126 kts 129°
2026-04-30 18:57 51.88347 6.88663 3007 ft 126 kts 129°
2026-04-30 18:58 51.87225 6.90839 3007 ft 126 kts 129°
2026-04-30 18:58 51.86667 6.91922 3006 ft 125 kts 129°
2026-04-30 18:58 51.86109 6.92997 3007 ft 124 kts 129°
2026-04-30 18:59 51.84990 6.95117 3007 ft 124 kts 129°
2026-04-30 19:00 51.83304 6.98275 3017 ft 126 kts 129°
2026-04-30 19:00 51.82725 6.99345 3017 ft 127 kts 129°
2026-04-30 19:00 51.81616 7.01592 3023 ft 129 kts 126°
2026-04-30 19:01 51.80525 7.03900 3026 ft 129 kts 124°
2026-04-30 19:01 51.79967 7.05054 3022 ft 130 kts 126°
2026-04-30 19:02 51.78867 7.07353 3004 ft 131 kts 126°
2026-04-30 19:02 51.77742 7.09662 3015 ft 131 kts 126°
2026-04-30 19:03 51.76608 7.11957 3014 ft 131 kts 126°
2026-04-30 19:03 51.75472 7.14268 3016 ft 132 kts 126°
2026-04-30 19:04 51.74341 7.16592 3011 ft 130 kts 126°
2026-04-30 19:04 51.73232 7.18869 3016 ft 128 kts 126°
2026-04-30 19:05 51.72143 7.21107 3026 ft 126 kts 126°
2026-04-30 19:05 51.71062 7.23352 2982 ft 126 kts 126°
2026-04-30 19:06 51.70033 7.25657 2653 ft 125 kts 124°
2026-04-30 19:06 51.69533 7.26796 2529 ft 124 kts 122°
2026-04-30 19:06 51.68576 7.29015 2411 ft 118 kts 122°
2026-04-30 19:07 51.67647 7.31182 2366 ft 119 kts 122°
2026-04-30 19:07 51.67188 7.32257 2401 ft 115 kts 121°
2026-04-30 19:08 51.66282 7.34439 2401 ft 117 kts 121°
2026-04-30 19:08 51.65351 7.36614 2430 ft 119 kts 121°
2026-04-30 19:08 51.64887 7.37735 2387 ft 123 kts 121°
2026-04-30 19:09 51.63909 7.40000 2418 ft 120 kts 123°
2026-04-30 19:09 51.63437 7.41105 2405 ft 121 kts 122°
2026-04-30 19:09 51.62955 7.42241 2346 ft 124 kts 124°
2026-04-30 19:10 51.61960 7.44479 2293 ft 122 kts 123°
2026-04-30 19:10 51.60973 7.46717 2277 ft 122 kts 124°
2026-04-30 19:11 51.60474 7.47815 2274 ft 122 kts 123°
2026-04-30 19:11 51.59511 7.50010 2282 ft 118 kts 122°
2026-04-30 19:11 51.59058 7.51114 2276 ft 120 kts 122°
2026-04-30 19:12 51.58584 7.52202 2299 ft 117 kts 123°
2026-04-30 19:12 51.58113 7.53274 2284 ft 118 kts 124°
2026-04-30 19:12 51.57530 7.54204 2330 ft 117 kts 134°
2026-04-30 19:13 51.56221 7.55904 2271 ft 124 kts 141°
2026-04-30 19:13 51.54978 7.57506 1939 ft 105 kts 135°
2026-04-30 19:13 51.54433 7.58230 1667 ft 95 kts 135°
2026-04-30 19:14 51.53945 7.58869 1431 ft 94 kts 154°
2026-04-30 19:14 51.53251 7.58765 1231 ft 103 kts 184°
2026-04-30 19:14 51.52566 7.58564 1040 ft 96 kts 181°
2026-04-30 19:14 51.51923 7.58428 868 ft 91 kts 173°
2026-04-30 19:15 51.51428 7.58741 807 ft 69 kts 129°
2026-04-30 19:15 51.51436 7.60076 571 ft 74 kts 64°
2026-04-30 19:15 51.51695 7.60823 465 ft 75 kts 64°
2026-04-30 19:16 51.51919 7.61466 410 ft 49 kts 59°
2026-04-30 19:16 51.52055 7.61854 407 ft 40 kts 61°
2026-04-30 19:16 51.52182 7.62318 405 ft 10 kts 129°
2026-04-30 19:17 51.52128 7.62366 405 ft 5 kts 152°
2026-04-30 19:17 51.52107 7.62383 404 ft 0 kts 149°
2026-04-30 19:18 51.52062 7.62393 404 ft 10 kts 210°
2026-04-30 19:19 51.52018 7.62295 405 ft 12 kts 244°
2026-04-30 19:19 51.51976 7.62172 408 ft 16 kts 239°
2026-04-30 19:19 51.51848 7.61811 411 ft 15 kts 242°
2026-04-30 19:20 51.51802 7.61678 413 ft 12 kts 240°
2026-04-30 19:20 51.51753 7.61536 417 ft 16 kts 235°
2026-04-30 19:20 51.51644 7.61235 423 ft 15 kts 244°
2026-04-30 19:21 51.51594 7.61082 423 ft 13 kts 233°
2026-04-30 19:21 51.51489 7.60996 429 ft 15 kts 243°
2026-04-30 19:22 51.51379 7.60683 437 ft 15 kts 246°
2026-04-30 19:22 51.51246 7.60305 443 ft 11 kts 244°
2026-04-30 19:23 51.51160 7.60224 455 ft 6 kts 66°
2026-04-30 19:24 51.51250 7.60450 451 ft 10 kts 53°
2026-04-30 19:24 51.51261 7.60482 451 ft 4 kts 64°
2026-04-30 19:24 51.51255 7.60553 456 ft 0 kts 102°
2026-04-30 19:25 51.51254 7.60556 457 ft 0 kts 100°